Satellite-Ground Cal/Val Site Overpasses Predictions

Prediction of Satellite NPP Overpassing Cal/Val Site: Antarctic Dome C

Ground Cal/Val Site Location: Latitude: -75.10, Longitude: 123.35; Satellite-Ground Site NADIR distance within 100 km.

Table of predicted overpasses for the next 14.0 days since TLE Epoch: 12/4/2015
Interval Starting Time Ending Time Minimum Distance Time Minimum Distance (km)
1 12/05/2015 14:51:06 12/05/2015 14:51:35 12/05/2015 14:51:20 17.09
2 12/07/2015 07:33:55 12/07/2015 07:34:24 12/07/2015 07:34:10 4.16
3 12/10/2015 14:57:20 12/10/2015 14:57:49 12/10/2015 14:57:34 19.73
4 12/11/2015 14:38:38 12/11/2015 14:38:52 12/11/2015 14:38:45 87.57
5 12/12/2015 07:40:09 12/12/2015 07:40:36 12/12/2015 07:40:23 39.84
6 12/13/2015 07:21:23 12/13/2015 07:21:43 12/13/2015 07:21:33 70.10
7 12/15/2015 15:03:37 12/15/2015 15:04:01 12/15/2015 15:03:49 56.69
8 12/16/2015 14:44:46 12/16/2015 14:45:10 12/16/2015 14:44:58 52.53
9 12/17/2015 07:46:27 12/17/2015 07:46:46 12/17/2015 07:46:37 75.17


NCC Satellite Cal/Val Overpasses Prediction Service
